Other Surface Observations
Issued by NWS Tucson, AZ

Home | Current Version | Previous Version | Text Only | Print | Product List | Glossary On
Versions: 1 2 3 4 5 6 7 8 9 10 11 12 13 14 15 16 17 18 19 20 21 22 23 24 25 26 27 28 29 30 31 32 33 34 35 36 37 38 39 40 41 42 43 44 45 46 47 48 49 50
000
SXUS55 KTWC 271915
OSOTWC

WEATHER ROUNDUP FOR SOUTHEAST ARIZONA
NATIONAL WEATHER SERVICE TUCSON AZ
1215 PM MST THU APR 27 2017

AZZ504>506-514-272015-
LOCATION       SKY/WX    TMP DP  RH WIND       PRES   REMARKS
TUCSON         SUNNY     84  35  17 VRB5      29.76F
DAVIS-MONTHAN  MOSUNNY   83  35  17 W14       29.74F
CHILDRENS PARK N/A      N/A N/A  20 W6                PIMA CO DEQ
ALVERNON/22ND  N/A       81 N/A N/A W8                PIMA CO DEQ
CHERRY/GLENN   N/A      N/A N/A N/A N/A               PIMA CO DEQ
TANGERINE      N/A       81 N/A N/A N/A               PIMA CO DEQ
CONTL RANCH    N/A       82  36  19 W10               PIMA CO DEQ
GRANT/1ST      N/A       81  35  19 W8                PIMA CO DEQ
CRAYCROFT/22ND N/A       81  33  18 N/A               PIMA CO DEQ
GOLFLINKS/KOLB N/A      N/A N/A N/A N/A               PIMA CO DEQ
AJO/12TH       N/A       83  35  18 SW8               PIMA CO DEQ
FAIRGROUNDS    N/A       79 N/A N/A SW16              PIMA CO DEQ
SAGUARO        N/A       84  36  18 W6G13             *SABINO CYN
SAN CARLOS     N/A       80  35  20 W10G14            *SAN CARLOS
GREEN VALLEY   N/A       81  31  16 SW14              PIMA CO DEQ
HORSE CAMP CYN N/A       73  35  25 W18G30            *ARAVAIPA CYN
RINCON MTNS    NOT AVBL
$$

AZZ509>511-272015-
LOCATION       SKY/WX    TMP DP  RH WIND       PRES   REMARKS
SAFFORD        MOSUNNY   83  35  18 NW21G29   29.71F
STRAY HORSE    N/A       55  31  40 N/A               *
TRAIL CABIN    N/A       66  35  32 NW10G23           *N OF GRANVILLE
BLACK HILLS    NOT AVBL
DRY LAKE       N/A       62  34  35 SW7G16            *NATANES MTNS
NOON CREEK     NOT AVBL
COLUMBINE      N/A       51  33  50 SW8G17            *PINALENO MTNS
GUTHRIE        N/A       64  32  30 NW12G25           *SW OF GUTHRIE
$$

AZZ502-503-513-272015-
LOCATION       SKY/WX    TMP DP  RH WIND       PRES   REMARKS
NOGALES        MOSUNNY   80  36  20 W13G21    29.84F
SELLS          N/A       84  37  19 NE11G19           *
SASABE         N/A       80  35  20 SW13G25           *ALTAR VLY
HOPKINS        N/A       69  32  25 W9G20             *SANTA RITA MTNS
CARR CYN       N/A       76  37  24 SE3G13            *W OF HEREFORD
$$

AZZ507-508-512-272015-
LOCATION       SKY/WX    TMP DP  RH WIND       PRES   REMARKS
SIERRA VISTA   MOSUNNY   77  34  20 W14G26    29.86F
DOUGLAS        MOSUNNY   80  31  16 W22G32    29.81F
EMPIRE MTNS    NOT AVBL
MULESHOE RANCH N/A       72  34  25 W12G30            *PRESERVE
HEADQUARTERS   NOT AVBL
$$

.............................NOTES.............................
THIS IS AN AUTOMATED COLLECTIVE WITH MINIMAL QUALITY CONTROL.
PIMA CO DEQ SITES HAVE NONSTANDARD WIND SENSOR HEIGHTS.
PIMA CO DEQ SITES DO NOT REPORT WIND GUSTS.
* INDICATES WIND SENSORS LOCATED AT 20 FEET INSTEAD OF 33 FEET.
..............................KEY..............................
SKY/WX - SKY CONDITION/WEATHER
TMP    - TEMPERATURE IN FAHRENHEIT
DP     - DEWPOINT IN FAHRENHEIT
RH     - RELATIVE HUMIDITY IN PERCENT
WIND   - DIRECTION AND SPEED IN MILES PER HOUR (MPH)
VRB    - VARIABLE WIND DIRECTION
PRES   - MEAN SEA LEVEL PRESSURE IN INCHES OF MERCURY
         F - FALLING PRESSURE   R - RISING PRESSURE
         S - STEADY PRESSURE
VSB    - VISIBILITY IN MILES
HX     - HEAT INDEX IN FAHRENHEIT
WCI    - WIND CHILL INDEX IN FAHRENHEIT
N/A    - NOT AVAILABLE
AFB    - AIR FORCE BASE
         DAVIS-MONTHAN IS DAVIS-MONTHAN AIR FORCE BASE
CYN    - CANYON
MTNS   - MOUNTAINS
NCA    - NATIONAL CONSERVATION AREA
NR     - NEAR
VLY    - VALLEY
CONTL  - CONTINENTAL
PIMA CO DEQ - PIMA COUNTY DEPT OF ENVIRONMENTAL QUALITY



USA.gov is the U.S. government's official web portal to all federal, state and local government web resources and services.